TimeCST,TemperatureF,Dew PointF,Humidity,Sea Level PressureIn,VisibilityMPH,Wind Direction,Wind SpeedMPH,Gust SpeedMPH,PrecipitationIn,Events,Conditions,WindDirDegrees,DateUTC
12:53 AM,46.9,45.0,93,30.12,8.0,Calm,Calm,-,N/A,,Clear,0,2012-01-06 06:53:00
1:43 AM,46.4,46.4,100,30.10,1.8,Calm,Calm,-,N/A,,Clear,0,2012-01-06 07:43:00
1:53 AM,48.2,46.4,93,30.10,1.8,Calm,Calm,-,N/A,,Clear,0,2012-01-06 07:53:00
1:57 AM,48.2,46.4,93,30.10,3.0,Calm,Calm,-,N/A,,Clear,0,2012-01-06 07:57:00
2:36 AM,46.4,44.6,93,30.09,7.0,ESE,3.5,-,N/A,,Mostly Cloudy,110,2012-01-06 08:36:00
2:49 AM,46.4,44.6,93,30.09,0.8,Calm,Calm,-,N/A,,Mist,0,2012-01-06 08:49:00
2:53 AM,46.9,45.0,93,30.10,0.2,Calm,Calm,-,N/A,Fog,Fog,0,2012-01-06 08:53:00
3:02 AM,48.2,46.4,93,30.09,1.0,Calm,Calm,-,N/A,,Mist,0,2012-01-06 09:02:00
3:12 AM,46.4,46.4,100,30.09,3.0,Calm,Calm,-,N/A,,Overcast,0,2012-01-06 09:12:00
3:16 AM,46.4,46.4,100,30.09,1.2,Calm,Calm,-,N/A,,Overcast,0,2012-01-06 09:16:00
3:25 AM,46.4,44.6,93,30.09,0.8,Calm,Calm,-,N/A,,Mist,0,2012-01-06 09:25:00
3:40 AM,48.2,46.4,93,30.09,0.2,South,3.5,-,N/A,Fog,Fog,180,2012-01-06 09:40:00
3:50 AM,48.2,48.2,100,30.09,0.5,Calm,Calm,-,N/A,Fog,Fog,0,2012-01-06 09:50:00
3:53 AM,50.0,48.0,93,30.10,0.8,Calm,Calm,-,N/A,,Overcast,0,2012-01-06 09:53:00
4:45 AM,55.4,55.4,100,30.08,0.2,South,4.6,-,N/A,Fog,Fog,180,2012-01-06 10:45:00
4:53 AM,55.0,55.0,100,30.10,0.2,South,4.6,-,N/A,Fog,Fog,190,2012-01-06 10:53:00
5:02 AM,55.4,55.4,100,30.08,0.5,South,5.8,-,N/A,Fog,Fog,190,2012-01-06 11:02:00
5:26 AM,55.4,55.4,100,30.08,1.2,South,5.8,-,N/A,,Overcast,190,2012-01-06 11:26:00
5:53 AM,55.9,55.9,100,30.10,1.8,South,4.6,-,N/A,,Overcast,170,2012-01-06 11:53:00
6:45 AM,55.4,55.4,100,30.09,2.0,South,5.8,-,N/A,,Overcast,190,2012-01-06 12:45:00
6:53 AM,55.9,55.9,100,30.11,2.5,SSW,4.6,-,N/A,,Overcast,200,2012-01-06 12:53:00
7:24 AM,55.4,55.4,100,30.10,4.0,South,5.8,-,N/A,,Overcast,190,2012-01-06 13:24:00
7:42 AM,57.2,55.4,94,30.10,2.0,SSW,4.6,-,N/A,,Overcast,200,2012-01-06 13:42:00
7:51 AM,57.2,55.4,94,30.11,1.8,SSW,4.6,-,N/A,,Overcast,200,2012-01-06 13:51:00
7:53 AM,57.0,55.9,96,30.12,1.8,South,3.5,-,N/A,,Overcast,190,2012-01-06 13:53:00
8:01 AM,57.2,55.4,94,30.11,2.0,South,3.5,-,N/A,,Overcast,190,2012-01-06 14:01:00
8:53 AM,59.0,57.9,96,30.13,3.0,Variable,4.6,-,N/A,,Overcast,0,2012-01-06 14:53:00
9:53 AM,60.8,59.0,94,30.13,6.0,South,3.5,-,N/A,,Overcast,180,2012-01-06 15:53:00
10:04 AM,62.6,59.0,88,30.13,7.0,South,3.5,-,N/A,,Overcast,190,2012-01-06 16:04:00
10:16 AM,62.6,59.0,88,30.13,8.0,SSW,3.5,-,N/A,,Overcast,200,2012-01-06 16:16:00
10:33 AM,64.4,60.8,88,30.12,9.0,SSW,4.6,-,N/A,,Mostly Cloudy,200,2012-01-06 16:33:00
10:53 AM,64.9,59.0,81,30.13,10.0,SSW,8.1,-,N/A,,Overcast,210,2012-01-06 16:53:00
11:53 AM,66.9,59.0,76,30.09,10.0,Variable,5.8,-,0.01,,Overcast,0,2012-01-06 17:53:00
12:28 PM,66.2,57.2,73,30.06,10.0,SSW,6.9,-,N/A,,Overcast,200,2012-01-06 18:28:00
12:53 PM,66.9,59.0,76,30.06,10.0,SSE,3.5,-,N/A,,Overcast,160,2012-01-06 18:53:00
1:07 PM,68.0,59.0,73,30.03,10.0,SE,6.9,-,N/A,,Overcast,140,2012-01-06 19:07:00
1:53 PM,68.0,59.0,73,30.03,10.0,SE,9.2,-,N/A,,Mostly Cloudy,130,2012-01-06 19:53:00
2:50 PM,69.8,57.2,64,30.00,10.0,South,15.0,21.9,N/A,,Overcast,190,2012-01-06 20:50:00
2:53 PM,69.1,57.9,68,30.01,10.0,SSW,16.1,21.9,N/A,,Overcast,200,2012-01-06 20:53:00
3:53 PM,70.0,57.0,63,30.01,10.0,SSW,12.7,20.7,N/A,,Partly Cloudy,200,2012-01-06 21:53:00
4:53 PM,68.0,57.0,68,30.01,5.0,South,5.8,-,N/A,,Haze,170,2012-01-06 22:53:00
5:53 PM,62.1,57.0,84,30.01,10.0,SSE,5.8,-,N/A,,Partly Cloudy,160,2012-01-06 23:53:00
6:53 PM,64.0,55.9,75,30.02,10.0,SSE,5.8,-,N/A,,Clear,160,2012-01-07 00:53:00
7:53 PM,61.0,57.0,87,30.02,10.0,SSE,5.8,-,N/A,,Clear,160,2012-01-07 01:53:00
8:53 PM,59.0,57.0,93,30.02,10.0,SSE,3.5,-,N/A,,Clear,160,2012-01-07 02:53:00
9:53 PM,55.9,55.0,97,30.03,10.0,SSE,4.6,-,N/A,,Clear,150,2012-01-07 03:53:00
10:53 PM,57.0,55.0,93,30.03,10.0,SSE,3.5,-,N/A,,Clear,160,2012-01-07 04:53:00
11:53 PM,55.0,55.0,100,30.02,8.0,SE,3.5,-,N/A,,Clear,130,2012-01-07 05:53:00